Showing default

COSMOS 2589, 64467

Orbit data source: Space-Track

COSMOS 2589, 64467 is a payload satellite owned by Resehetnev ISS (CIS) in HEO that was launched on Thu, 19 Jun 2025 UTC via an ANGARA A5 launch vehicle from the Plesetsk Missile And Space Complex (PKMTR). Payload-class satellites include a variety of spacecraft equipped with specific instruments for various scientific and technological missions. These include communications satellites like Starlink; space stations such as the ISS; scientific satellites like the Hubble; Earth observation satellites from companies like Planet Labs, Umbra, and HawkEye 360; GPS; miniature CubeSats for education and research; and military/defense satellites.

Not visible in the next 10 days
Identifier
64467, 2025-131A
Orbit
HEO
Last TLE update
14 hours ago
Origin
Flag of CISRESH (CIS)
Manufacturer
RESH/TSKHM
Mission
Operational spacecraft
Bus & Motor
14F166, Unknown motor
Mass
~3,200 kg wet, 2,700 kg dry
Launch date (UTC)
2025-06-19 (1 month ago)
Launch vehicle
ANGARA A5
Launch site
Plesetsk Missile And Space Complex (PKMTR)
Object type
Payload
Rocket body
Debris
Shape & HBR
Unknown
Radar Cross Section
Large (>1 m²)

Expand to show TLE details & history

TLE from 14 hours ago
0 COSMOS 2589
1 64467U 25131A   25199.76452716 -.00000300  00000-0  00000+0 0  9996
2 64467   0.9822 280.8903 3655078 173.8366 218.9584  1.00266904   283
Epoch: 2025-07-18T18:20Z
TLE epoch observation values (Epoch: 2025-07-18T18:20:55.146Z)
Latitude
0.21339°
Longitude
82.57855°
Altitude
49,345.079 km
Speed
2.203 km/s
True Right ascension
19h 38m 28s
True Declination
0° 12' 48"
Sunlit
Object was in daylight at epoch
Visualization orbit readout
Latitude
-0.94715°
Longitude
-8.9022°
Altitude
34,860.742 km
Speed
3.143 km/s
Apparent Right ascension
13h 08m 10s
Apparent Declination
-6° 16' 38"
Sunlit
Object is in daylight
Visualization observer readout
Local Sidereal Time
20:54:51
Azimuth
282.837° WNW
Elevation
-24.352°
Doppler factor
1
Orbital elements
Apogee altitude
51,201.805 km
Perigee altitude
20,376.763 km
Semi-major axis
42,167.421 km
Eccentricity
0.36551
Inclination
0.9822°
RAAN
280.8903°
Arg. of periapsis
173.8366°
True anomaly
199.89181°
Mean anomaly
218.9584°
Eccentric anomaly
208.85263°
Mean motion
0.25066 °/min
Orbital period
1,436.23 mins
BSTAR
0
Loading maneuver chart data...
Loading SW <> Apogee altitude chart data...
Loading historical data...
Loading historical data...
Loading historical data...
Loading historical data...
Loading historical data...
Loading historical data...
Loading historical data...
Other satellites on launch #131 in the year 2025 (2025-06-19 UTC)
|